カタログに戻る

CZ-6A DEB

運用中PO
NORAD 61839·DEBRIS·🇨🇳 China

打ち上げ Aug 6, 2024 から Taiyuan Satellite Launch Center

Loading…

次のパス (今後24時間)

TLE

古いSource: Space-Track

元期: Sep 2, 2026, 18:54 UTC

1 61839U 24140ADF 26245.78816542  .00002345  00000-0  76717-3 0  9993
2 61839  88.9246 257.6664 0024341 155.0944 205.1436 14.38075210107644

AllMySatでCZ-6A DEBをリアルタイム追跡

Download on the App Store